Wind_Speed
4 3 2 2 1 1 1 1 2 3 4 5 6 7 8 9 9 9 9 7 5 5 5 7 9 11 13 14 13 12 12 12 7 4 2 3 6 8 9 10 9 10 9 10 10 9 9 9 10 15 12 4 0 1 1 0 2 3 3 2 2 3 4 4 5 4 3 2 5 6 6 8 5 3 1 1 2 0 2 3 2 2 4 2 1 5 19 32
5 4 3 3 2 2 1 2 2 3 4 5 5 6 7 8 9 9 9 7 6 6 7 9 10 13 14 15 12 9 11 9 4 2 1 3 7 8 8 9 9 9 8 9 8 5 4 6 9 13 7 2 2 1 1 1 2 3 3 2 4 5 5 5 6 5 3 4 7 7 6 7 7 5 3 2 4 2 3 5 3 4 4 4 6 15 26 31
6 5 4 4 3 3 3 3 3 3 4 4 4 5 7 8 8 9 8 8 8 7 8 9 11 13 15 13 8 6 8 5 2 2 1 4 7 7 7 9 9 7 7 7 7 6 4 6 8 7 3 1 3 0 0 1 0 2 3 2 6 6 5 4 5 7 6 5 7 6 5 6 6 5 4 4 4 3 7 7 3 6 9 2 5 15 25 28
6 5 5 5 4 4 4 4 4 4 4 4 4 6 8 9 9 9 8 7 7 7 7 8 11 13 14 11 6 5 6 4 2 1 2 7 7 5 7 8 6 6 7 7 8 8 8 7 4 1 1 2 4 1 2 3 1 1 4 5 7 5 3 6 6 6 6 5 6 5 4 4 5 4 3 5 3 5 8 9 9 11 11 8 6 12 20 23
6 5 5 5 4 4 4 4 4 4 5 5 5 7 8 9 9 9 8 6 5 5 6 8 10 13 14 10 5 5 5 4 2 1 4 8 6 5 6 6 4 5 6 6 7 6 7 5 2 2 2 2 3 2 3 4 3 2 3 6 6 5 3 7 7 5 4 3 3 4 4 4 2 2 4 7 6 7 6 8 11 12 10 11 11 13 16 17
7 6 5 5 5 5 5 5 5 5 6 6 6 8 8 8 8 9 9 7 5 5 7 9 11 12 14 11 6 4 3 1 2 2 6 8 5 5 5 4 3 5 4 4 5 3 3 3 4 2 2 1 2 2 5 4 2 3 4 3 5 5 4 4 5 4 4 5 4 5 4 2 3 3 4 8 10 10 6 7 10 11 11 14 14 14 13 13
8 7 6 5 5 5 6 5 6 6 6 7 7 8 8 8 8 9 9 8 7 7 9 10 11 12 13 12 6 2 2 2 2 3 6 6 5 5 5 4 4 5 3 2 3 1 2 4 3 2 1 2 3 4 4 3 2 3 4 3 4 5 5 5 5 5 5 6 6 4 1 1 5 4 1 5 13 11 6 4 4 6 10 14 13 13 14 15
7 6 6 5 5 6 6 6 6 7 7 8 8 8 8 8 8 8 8 8 8 9 9 10 11 11 12 10 3 3 2 3 3 5 6 4 3 5 5 5 5 5 1 3 4 0 1 3 3 2 1 3 4 3 2 2 3 3 5 4 2 3 4 5 5 5 6 5 4 3 1 5 6 3 2 9 14 10 7 5 2 4 8 12 11 13 12 12
7 7 6 6 6 6 6 6 7 7 7 8 8 8 7 7 6 6 8 9 9 8 8 9 10 10 10 6 4 3 3 2 3 6 5 3 2 4 5 4 5 5 2 5 6 2 1 0 2 1 1 4 2 2 1 1 3 4 5 3 2 3 4 3 4 6 6 3 3 3 4 5 4 2 4 11 13 8 4 6 4 6 7 9 10 12 12 11
8 7 7 6 6 7 7 7 8 8 8 8 8 8 8 7 6 5 7 9 10 8 8 8 9 9 7 3 5 2 3 1 5 6 5 5 3 2 4 7 7 6 4 5 6 4 3 3 3 1 2 3 0 1 0 4 4 3 3 3 3 4 5 3 5 5 3 2 4 6 5 3 3 1 4 9 6 3 1 2 5 6 7 8 8 9 11 11
8 7 7 7 7 7 7 8 9 9 9 9 9 9 9 9 8 8 9 10 10 9 8 7 8 8 5 2 4 2 3 3 5 5 5 6 4 3 3 7 7 7 6 5 5 2 0 3 3 1 1 1 1 2 2 3 2 1 1 5 6 5 6 4 5 5 2 2 5 6 4 4 3 1 8 9 2 4 4 3 3 6 7 7 7 6 8 10
8 7 7 7 7 7 8 9 9 9 10 10 10 10 11 11 11 12 13 12 11 10 8 6 7 7 3 2 3 5 3 3 4 5 7 8 5 4 2 4 4 6 6 4 3 2 2 2 2 3 3 1 1 2 2 2 1 2 3 4 8 8 6 6 4 5 5 2 5 6 3 4 2 7 12 6 5 6 5 5 3 6 7 5 6 5 5 8
7 7 7 7 7 8 9 10 11 11 11 11 11 12 13 14 15 15 16 14 12 10 8 7 7 6 2 1 3 3 2 2 3 6 8 9 5 3 2 1 2 4 4 3 5 3 2 2 3 5 3 3 0 2 0 2 2 3 2 0 5 7 6 6 1 4 6 2 3 4 3 6 6 11 11 5 5 6 6 7 5 5 6 3 4 5 4 5
7 7 7 8 9 10 11 12 12 12 11 12 12 13 14 15 16 16 15 14 12 10 8 7 7 4 1 3 3 1 1 2 4 8 9 9 6 3 2 2 2 2 4 5 5 2 2 2 3 3 1 3 1 1 3 5 3 2 2 1 2 2 5 7 1 6 6 1 3 6 2 7 8 10 9 6 4 2 4 7 5 4 4 2 1 2 1 2
7 7 8 9 10 11 12 12 12 12 11 12 12 13 14 14 13 12 11 11 9 7 7 6 5 1 1 3 2 1 1 2 4 9 10 10 8 3 3 4 4 3 4 6 3 2 2 1 4 3 0 1 3 3 3 5 3 2 2 4 3 2 5 8 2 6 5 0 4 6 2 7 8 9 7 6 6 3 2 8 6 6 5 4 3 3 5 5
8 8 9 10 11 12 13 13 12 11 11 12 12 12 13 12 9 7 6 5 5 5 4 2 1 2 1 2 1 1 2 3 5 8 8 8 7 5 8 8 5 4 4 4 3 3 2 3 3 2 2 2 5 5 4 4 4 3 1 4 3 3 4 6 3 1 4 2 1 1 2 5 6 8 6 6 9 6 5 7 6 7 6 5 5 6 6 7
9 9 10 11 12 13 13 13 12 10 10 11 11 13 12 9 6 3 1 1 3 5 3 2 1 1 0 1 1 2 3 4 7 8 6 6 6 7 8 6 3 6 6 2 2 2 1 3 1 0 2 3 3 5 4 3 4 4 0 3 4 4 3 4 4 3 3 3 2 1 3 6 8 11 9 8 9 7 6 5 6 7 7 8 8 9 9 10
10 10 11 12 13 14 14 14 12 10 11 11 12 13 9 5 3 0 0 2 4 3 1 2 2 2 1 2 1 4 6 7 9 7 4 4 6 7 6 2 3 6 6 4 2 1 1 2 2 1 3 3 2 6 2 4 3 2 2 3 4 3 3 4 4 3 2 1 2 2 3 8 11 12 10 10 9 5 4 5 7 8 9 10 10 11 11 12
11 12 13 13 14 15 15 15 11 9 11 11 12 11 4 2 1 1 2 3 2 0 1 2 1 1 3 3 3 7 10 9 7 4 2 5 8 7 3 1 2 3 4 3 3 2 1 3 3 1 2 2 2 5 6 8 5 2 4 4 4 5 5 6 5 4 2 2 3 5 5 7 9 10 10 10 8 8 8 8 8 8 10 10 11 11 11 13
12 13 13 14 15 15 16 15 10 9 11 10 11 7 2 3 3 2 4 4 1 1 1 2 1 1 3 3 5 9 9 5 2 1 3 9 9 5 2 2 5 5 2 1 1 2 2 2 2 4 6 7 6 7 8 7 5 2 3 4 5 6 6 5 4 5 1 2 4 3 2 6 8 9 9 7 8 11 9 10 10 9 10 10 12 12 12 11
13 13 14 14 15 15 16 14 8 8 10 9 9 4 2 1 2 2 5 4 3 1 0 3 2 2 4 4 5 7 4 1 2 1 4 9 5 1 2 3 5 4 2 3 1 3 3 1 6 8 9 8 6 6 5 5 4 2 4 5 5 4 6 5 2 5 3 2 3 3 5 6 7 8 9 8 10 10 8 10 11 10 11 9 11 12 10 8
13 14 14 14 15 15 16 12 6 7 9 7 7 7 4 3 3 2 1 2 6 2 1 4 1 3 5 3 3 4 2 2 4 3 6 9 4 1 2 3 3 2 3 1 1 5 2 4 9 8 5 5 3 2 3 1 2 2 1 2 4 3 4 5 2 4 4 2 2 4 6 5 7 8 9 10 9 7 7 10 9 10 12 10 10 10 9 9
14 15 15 15 15 16 16 9 4 7 9 7 7 7 4 4 4 3 2 1 5 3 2 2 1 3 4 2 2 3 2 1 3 5 8 9 3 1 0 2 1 2 2 1 3 0 1 5 7 3 4 4 1 1 4 3 2 2 2 2 4 3 1 3 3 4 3 0 2 3 5 3 5 8 9 9 7 8 8 10 10 9 10 9 9 8 9 9
15 15 15 16 15 16 14 5 3 8 8 7 8 7 4 4 4 3 1 1 3 4 1 1 1 2 2 2 2 3 1 1 2 4 7 6 1 1 1 2 1 1 2 3 6 4 5 4 1 3 4 3 2 3 3 1 3 3 5 4 4 4 2 4 3 5 4 3 1 3 5 3 4 6 7 6 6 8 8 10 11 9 8 9 9 9 8 7
16 16 16 17 15 16 12 3 4 8 5 4 6 5 4 3 2 3 1 3 3 5 2 1 1 1 2 3 3 1 0 1 2 3 5 4 0 1 1 1 1 2 4 2 3 3 6 4 1 3 4 4 2 2 1 4 2 4 4 6 6 4 2 1 4 5 4 3 2 3 4 2 3 5 4 5 6 8 7 9 10 8 8 9 9 8 7 6
16 16 16 17 16 16 9 1 5 8 2 2 3 2 2 1 1 2 2 4 2 4 3 1 0 2 3 3 2 0 1 2 2 1 4 3 1 1 1 2 1 1 3 2 0 2 3 3 4 4 4 6 4 2 3 4 3 3 4 4 5 4 2 3 4 3 1 2 2 3 3 2 2 4 3 3 7 8 7 8 8 7 7 7 7 6 6 6
16 16 16 16 16 15 7 1 5 5 0 2 3 2 1 1 0 1 2 5 2 2 1 2 0 2 2 2 2 1 0 4 2 1 2 2 2 1 0 3 1 1 1 2 2 2 0 4 5 5 5 4 2 2 3 5 5 3 3 4 5 1 2 1 2 1 2 2 3 2 4 3 0 2 1 3 8 8 7 7 6 6 6 6 6 5 6 6
16 16 15 15 14 12 7 3 3 2 1 3 3 1 0 1 0 1 4 3 2 0 1 3 1 1 3 3 4 2 3 4 2 1 2 3 3 2 1 2 3 3 1 4 2 5 0 2 1 3 4 2 2 4 4 5 2 4 4 3 2 1 2 3 4 2 1 2 4 4 3 3 1 3 2 2 7 6 5 5 5 5 6 6 6 6 6 6
16 15 15 14 10 9 7 3 4 3 2 3 1 1 1 0 0 3 5 1 1 1 1 1 1 2 5 6 5 3 3 3 1 3 3 3 2 3 1 2 4 2 2 3 4 5 1 1 3 4 1 2 4 5 4 4 1 3 3 3 2 3 2 2 4 3 2 3 2 4 1 2 1 1 1 2 5 4 3 3 3 4 5 6 6 7 7 8
16 15 14 12 8 8 5 3 6 6 3 3 2 2 1 1 3 6 3 1 1 2 1 1 1 2 7 8 5 5 3 2 3 4 3 2 3 4 1 1 4 3 2 2 2 4 3 2 1 3 1 3 3 3 2 3 3 1 3 2 4 5 4 3 2 3 4 2 5 5 2 3 2 0 1 1 1 4 4 3 3 4 6 7 7 7 8 8
15 14 13 11 8 9 6 3 7 7 4 5 3 1 1 2 4 6 0 2 1 2 2 2 3 4 7 5 3 5 4 4 5 5 4 4 5 6 4 3 4 4 4 5 3 3 4 3 1 1 1 1 1 2 1 2 2 3 3 3 3 3 3 4 4 4 3 3 5 4 3 3 3 0 2 3 2 3 4 5 5 5 7 8 8 8 8 8
14 13 11 8 7 9 7 5 8 7 6 5 2 2 4 2 3 2 2 4 2 2 2 2 3 4 5 3 2 4 4 4 4 4 3 3 4 4 4 2 1 4 4 3 4 4 3 1 3 3 2 1 2 2 3 4 5 4 3 4 3 3 4 3 3 1 1 4 3 1 0 3 2 2 4 2 3 2 1 3 5 6 7 8 7 7 7 8
13 11 9 6 5 7 8 8 8 8 7 4 2 4 6 4 1 2 3 3 1 2 1 0 3 3 3 3 3 4 2 2 3 4 1 1 4 2 2 2 1 2 2 2 2 4 4 4 4 2 2 1 3 2 2 3 4 4 2 3 3 2 2 2 3 1 2 4 3 2 2 3 1 1 2 2 6 5 6 6 5 6 8 7 7 7 8 10
13 10 7 4 4 7 10 9 8 9 7 3 3 4 5 2 2 1 2 3 2 3 2 1 4 4 3 2 2 4 2 2 4 5 3 3 4 2 4 5 4 3 1 1 1 1 1 3 2 1 1 2 3 2 3 2 2 2 2 4 3 3 3 3 3 2 2 4 4 4 3 2 3 3 3 3 5 6 7 7 6 7 7 7 8 8 9 11
14 9 5 4 5 9 11 9 9 9 6 3 5 5 3 1 3 0 2 4 2 4 4 2 2 4 4 3 2 3 2 2 4 5 4 3 2 1 2 4 5 3 3 2 2 0 1 4 4 1 1 2 2 1 2 3 1 2 1 3 1 3 3 2 3 4 3 1 3 2 2 1 3 6 5 5 7 9 9 9 9 9 9 10 10 9 9 9
12 6 4 5 7 11 11 9 9 9 4 4 6 4 2 2 1 2 2 2 1 2 5 5 4 4 4 4 3 4 2 1 3 4 3 2 1 0 1 2 2 3 3 2 1 1 1 4 5 3 2 1 2 1 1 1 0 0 1 1 2 3 5 2 1 1 3 2 2 1 3 1 3 5 4 7 9 9 9 10 10 9 9 10 8 8 8 8
9 4 4 7 11 12 10 9 9 7 3 6 5 1 2 2 1 2 1 1 1 0 3 4 2 2 2 3 4 5 4 2 2 3 2 1 0 1 2 2 1 2 2 1 1 1 1 4 5 1 1 1 1 1 3 1 1 2 1 3 1 2 4 3 1 3 4 1 2 1 5 4 3 3 3 8 9 8 8 8 8 7 8 8 7 8 9 8
6 2 3 8 14 13 10 8 7 3 4 6 4 1 1 0 0 1 0 1 1 1 4 1 2 1 1 1 3 5 4 3 3 3 1 1 1 2 2 3 2 2 4 3 1 1 1 2 6 1 1 3 2 2 3 4 1 2 2 2 1 2 0 1 1 0 1 1 3 3 2 3 2 1 2 7 8 8 8 7 8 8 9 8 8 10 11 9
4 2 2 8 16 15 10 7 4 4 6 5 2 1 0 0 1 1 1 1 1 2 2 1 2 2 0 1 2 4 3 2 3 3 1 0 2 2 3 1 2 2 5 3 1 2 1 1 4 4 1 2 3 3 2 4 4 3 2 2 2 3 3 1 1 2 2 1 2 2 2 1 1 1 3 6 6 7 8 9 9 9 10 9 9 11 13 9
2 2 1 8 17 15 9 5 4 6 5 3 2 1 1 0 2 3 1 1 1 1 0 2 1 2 2 1 1 2 1 0 1 1 1 1 1 1 3 2 2 4 6 2 1 1 2 1 3 5 3 2 2 1 1 2 2 2 3 3 3 1 0 0 1 1 3 2 3 1 2 1 2 2 4 6 6 7 8 9 8 8 9 9 10 12 11 7
3 3 2 10 18 14 6 6 5 4 3 2 1 0 1 1 1 3 2 1 1 1 1 2 2 1 1 1 2 2 1 2 1 0 1 1 2 1 1 2 0 4 5 3 3 2 1 1 2 4 4 2 3 3 2 3 2 2 2 1 1 1 1 0 2 2 2 2 3 3 2 2 3 3 4 6 6 7 9 8 8 8 8 9 11 12 9 6
4 3 3 11 18 11 4 5 2 2 4 2 1 0 1 2 1 2 2 1 1 0 1 1 2 1 2 1 2 1 1 1 1 1 0 0 1 1 1 0 1 1 1 2 2 1 0 2 0 4 4 4 6 4 2 2 1 2 2 1 2 1 2 4 2 3 1 1 2 2 1 2 3 4 5 6 5 5 7 7 8 8 8 10 11 10 7 6
3 1 2 13 17 5 5 5 4 3 3 1 0 0 0 1 1 1 2 2 1 1 2 1 1 0 1 1 1 1 0 1 1 0 0 1 0 1 1 2 2 1 1 1 2 1 1 2 1 4 4 4 5 3 3 2 2 3 2 3 2 2 2 5 4 3 1 2 0 1 1 2 2 3 6 6 5 5 6 8 8 7 7 8 9 6 7 8
1 2 2 12 15 3 5 3 1 2 2 2 2 2 1 1 1 0 1 2 1 1 1 1 1 0 1 1 1 1 2 0 1 1 0 1 0 1 2 3 3 0 1 1 1 1 2 0 2 3 4 5 6 5 5 4 3 2 2 3 3 4 4 2 1 2 1 2 2 2 3 2 3 3 5 5 5 3 4 6 6 5 8 9 7 6 7 9
2 0 3 9 15 9 4 3 4 3 0 1 3 2 2 1 0 1 1 1 0 2 1 1 1 0 1 1 1 2 2 1 1 1 2 0 1 1 2 3 3 1 1 3 2 1 1 1 2 2 0 1 2 3 3 3 3 2 3 6 5 5 5 1 1 3 1 2 2 2 3 2 2 2 3 4 7 7 7 10 9 8 11 11 7 6 7 8
2 2 3 6 9 8 3 1 4 4 2 2 2 2 2 2 2 0 1 1 0 1 0 2 1 1 2 2 2 3 2 1 1 1 2 2 3 2 2 3 2 2 3 4 1 2 1 0 1 4 5 4 4 4 4 1 2 2 4 8 7 5 5 4 4 2 1 1 3 2 2 2 1 4 8 10 12 13 12 14 12 10 12 10 5 6 7 7
2 1 1 3 4 4 4 4 4 4 2 3 2 1 2 2 3 1 0 1 0 1 0 1 2 2 1 2 2 2 3 3 2 1 1 1 3 3 2 2 2 3 4 2 0 3 3 2 1 2 4 5 5 3 2 4 4 4 4 7 8 7 8 9 5 1 1 3 3 4 3 5 4 5 9 11 11 11 11 12 11 10 11 8 5 7 9 10
2 1 1 0 1 1 3 4 3 4 3 2 2 1 2 3 3 1 1 1 1 1 1 1 3 2 1 1 1 1 3 4 3 1 0 1 3 4 3 1 2 3 3 3 1 3 4 1 1 1 3 6 4 1 7 9 7 6 6 6 7 8 9 8 3 0 3 3 3 4 6 5 2 5 9 10 10 9 10 10 9 11 10 7 7 10 11 12
2 2 1 2 1 2 0 2 3 5 5 3 2 1 1 1 2 2 1 2 3 2 1 1 4 4 3 2 1 0 2 2 3 3 0 1 2 2 3 2 2 3 3 4 3 2 3 1 2 1 2 6 6 4 8 10 8 7 7 6 5 6 6 5 1 1 1 1 1 4 6 3 1 6 9 8 7 8 9 9 10 11 9 8 10 12 13 14
2 1 1 3 3 1 1 2 3 4 3 3 2 1 1 1 2 3 1 2 2 3 2 1 5 5 3 1 3 1 2 2 2 4 2 1 2 1 1 1 2 4 5 3 3 2 2 2 2 3 3 5 5 6 7 8 9 9 7 6 6 7 6 5 3 3 3 2 3 5 4 3 1 6 9 7 6 8 9 11 12 10 8 10 12 13 15 16
2 1 2 4 2 3 2 2 2 4 2 3 1 1 1 0 1 2 1 1 2 1 1 2 5 4 3 2 4 0 3 4 3 5 4 2 2 1 0 1 1 4 5 3 2 3 3 2 3 5 4 3 1 5 5 6 8 9 8 8 7 8 7 4 2 3 2 2 4 5 4 4 4 7 8 6 7 9 11 13 13 9 8 10 12 15 17 16
2 1 2 5 2 2 2 2 3 3 1 1 1 1 1 1 2 1 0 1 1 2 3 2 2 1 2 3 1 2 3 5 5 4 4 2 1 1 1 1 1 1 2 1 2 2 2 2 2 3 2 3 2 2 4 3 3 3 5 6 3 4 6 5 1 3 3 1 2 4 4 5 7 9 11 11 11 10 11 13 11 7 8 10 12 15 16 15
Wind_Direction
21 17 7 353 357 10 0 339 310 297 295 297 303 307 307 304 301 299 298 301 304 304 311 319 327 329 326 320 315 314 320 324 319 304 282 260 293 314 319 321 319 313 303 300 311 321 326 320 331 351 358 357 336 267 304 179 84 59 88 147 230 204 205 195 191 194 159 188 216 226 196 182 223 239 200 4 29 9 236 254 266 346 20 15 318 142 150 157
13 6 358 346 321 313 323 321 308 302 299 301 310 316 321 321 315 309 299 293 292 298 314 323 332 333 330 325 316 315 324 329 330 309 241 266 308 326 328 325 321 314 304 304 316 334 337 313 333 354 6 357 307 331 338 303 93 104 124 164 225 206 212 200 187 187 169 188 199 218 202 188 214 191 156 208 253 257 222 264 291 284 305 26 95 137 149 156
4 356 349 345 329 317 303 294 293 294 303 307 319 339 344 343 336 328 312 295 291 300 316 329 337 340 342 335 330 331 327 335 333 269 248 308 321 330 335 329 323 317 309 304 308 309 293 295 327 352 11 312 295 0 104 290 192 164 138 192 244 211 219 238 197 193 210 184 174 221 206 192 220 170 152 205 234 236 212 234 218 237 246 186 127 146 152 159
355 347 339 336 328 317 300 288 286 288 301 301 307 332 341 345 348 345 335 314 299 305 315 330 337 346 351 346 351 343 343 12 326 238 340 332 329 335 342 339 334 322 307 301 298 293 290 299 319 6 65 292 305 37 184 243 209 182 149 194 235 190 208 241 208 202 212 174 169 199 166 201 227 163 169 165 195 264 235 226 199 214 222 180 165 165 162 165
349 341 334 327 321 316 311 303 296 294 298 297 299 313 326 337 348 351 349 340 320 315 320 327 334 346 352 350 346 336 12 37 288 272 345 338 335 334 344 347 350 332 311 300 287 285 294 308 15 53 57 262 303 44 225 240 151 175 205 202 206 156 201 236 204 206 199 151 148 152 165 207 171 154 194 159 193 245 224 216 205 211 206 175 175 175 171 172
349 344 337 326 322 319 320 319 313 311 305 306 308 312 320 326 340 347 347 346 334 322 322 326 332 341 348 349 335 331 45 86 262 333 335 342 335 324 339 329 340 339 319 295 284 304 325 357 31 21 36 310 250 200 241 269 122 195 256 235 212 184 206 220 184 214 190 143 162 175 199 189 119 251 218 176 220 234 208 200 197 210 198 174 168 166 175 181
354 351 345 334 330 328 332 332 326 324 318 317 315 314 317 319 331 339 339 337 323 316 316 319 327 333 343 347 337 7 80 231 269 320 325 348 327 320 335 308 331 336 311 323 336 26 26 20 359 214 120 325 250 214 246 311 49 182 249 274 231 207 206 199 177 194 172 170 202 179 126 169 183 233 250 211 239 242 234 220 182 203 180 160 160 171 183 187
5 1 355 347 340 339 340 338 334 330 325 323 319 316 313 317 326 335 341 333 318 313 309 311 320 327 339 345 355 18 350 246 280 314 325 347 326 343 340 314 341 342 0 20 358 96 34 9 294 199 122 272 215 204 243 332 0 198 226 263 242 229 224 204 179 188 188 197 203 139 204 232 204 201 292 251 253 256 239 224 140 119 145 156 170 182 187 188
12 7 1 356 347 345 342 340 339 333 330 326 320 315 308 311 317 332 346 340 330 315 304 310 315 325 336 350 67 21 296 239 322 326 328 320 333 14 355 355 8 3 57 17 8 129 162 221 239 180 220 256 197 239 266 190 269 222 211 247 271 284 262 201 194 205 206 210 161 181 252 261 241 235 272 255 257 274 242 213 183 128 146 174 183 186 188 190
8 4 1 357 349 345 341 340 339 333 331 326 317 310 303 299 292 305 331 341 343 325 307 308 313 328 334 3 68 13 273 343 337 323 325 311 313 354 8 29 26 20 31 9 29 106 164 200 220 182 201 248 233 286 250 169 220 219 204 256 254 278 284 198 220 234 210 243 183 196 250 277 301 316 266 261 261 316 349 210 186 164 182 191 193 193 189 194
0 0 358 354 350 345 342 341 339 333 327 322 315 305 299 292 279 286 307 326 338 332 311 303 319 330 329 57 97 220 272 351 327 321 329 319 310 298 12 35 28 22 11 5 32 70 102 224 214 132 180 245 311 316 287 217 229 293 319 303 289 311 306 223 229 247 175 253 188 168 248 274 353 322 237 254 335 15 343 294 193 187 212 201 197 194 185 203
356 356 357 358 356 351 348 342 337 330 321 316 308 300 296 289 280 282 292 304 320 326 307 298 325 326 333 58 158 221 298 336 322 339 336 326 315 295 357 35 30 15 356 355 344 344 20 287 155 144 221 196 331 307 273 257 347 339 23 321 302 344 321 247 229 215 161 197 185 149 305 285 207 226 240 263 9 1 324 289 252 210 227 205 182 181 187 204
358 0 4 4 356 346 341 334 329 322 314 309 301 297 294 288 284 281 284 290 300 310 297 289 313 323 358 337 226 216 326 330 335 347 339 332 317 278 296 347 11 3 349 339 318 324 19 319 142 163 198 113 221 264 84 11 22 319 12 11 304 352 319 276 290 157 152 182 176 135 297 276 240 244 258 302 351 339 316 290 273 244 250 212 171 182 191 186
9 9 2 351 343 336 331 327 323 317 312 309 302 300 298 294 290 282 279 281 287 297 288 284 298 311 63 266 241 130 6 342 336 340 345 344 336 280 238 245 285 319 309 307 316 337 353 332 117 123 67 102 206 294 21 4 18 320 310 302 323 338 282 299 338 143 150 219 66 97 214 269 276 275 283 312 334 303 289 292 294 298 311 328 209 177 132 111
17 3 349 340 335 332 330 326 323 320 316 313 308 309 308 306 299 287 280 278 282 283 277 286 282 248 57 290 243 143 327 314 318 336 348 349 349 323 282 298 289 296 299 288 299 331 323 57 103 94 353 27 50 41 355 344 2 24 288 296 332 195 263 312 316 150 154 280 54 96 192 274 282 284 301 349 17 58 290 299 330 352 338 335 3 66 59 59
9 353 344 339 336 336 335 333 330 324 321 317 315 317 317 315 310 299 287 275 274 269 267 293 261 148 68 305 249 168 281 292 316 332 338 342 348 332 319 315 297 317 322 273 250 288 335 82 84 109 142 34 61 75 24 357 334 351 190 260 278 212 277 322 316 183 137 120 26 134 221 280 279 278 299 24 23 9 324 317 4 17 3 23 47 63 61 57
2 353 348 345 343 341 339 340 335 329 329 325 320 323 321 318 319 311 303 276 260 262 248 242 300 88 178 301 324 300 293 296 312 317 314 328 334 328 328 327 318 331 337 321 250 283 10 61 38 285 67 45 89 92 39 331 297 322 322 250 257 222 262 302 301 318 92 124 249 205 224 262 279 287 304 9 10 334 318 348 39 41 42 56 63 63 60 58
2 357 353 352 349 345 343 342 338 336 338 332 325 325 321 313 324 75 76 318 281 273 236 265 353 44 274 314 306 287 299 302 312 312 301 319 325 324 321 313 335 341 358 23 25 23 10 19 53 19 14 16 74 96 115 234 225 287 249 241 279 268 251 253 273 294 121 140 248 217 250 265 280 293 315 352 2 358 16 52 59 55 59 64 65 65 64 63
2 359 355 354 353 348 345 344 343 342 343 341 332 327 327 335 5 99 38 8 341 245 192 274 336 172 251 288 287 302 306 300 309 305 298 332 324 318 309 282 351 16 40 31 347 0 66 20 39 62 305 277 193 152 191 217 194 234 227 192 246 271 264 247 259 274 166 148 248 233 252 275 288 309 334 345 13 53 60 63 59 56 64 67 67 67 67 65
359 357 354 352 353 349 346 346 344 346 348 347 340 339 23 19 11 357 352 14 116 175 196 234 211 240 288 294 307 326 320 298 294 241 333 337 324 328 17 24 23 41 65 166 277 328 95 50 275 220 227 227 214 198 210 223 206 230 226 213 248 251 272 273 275 308 86 152 269 251 274 301 311 337 349 352 39 53 55 62 61 62 67 68 70 68 66 67
356 353 351 350 350 348 346 344 342 352 353 349 358 27 114 78 50 312 319 327 275 224 307 253 221 260 276 275 315 347 347 316 321 260 346 343 336 19 356 22 42 24 291 197 189 356 73 106 243 226 224 219 217 213 206 219 216 233 235 249 276 242 258 268 235 317 357 126 293 35 37 341 348 3 2 25 53 42 42 66 67 70 72 70 73 71 68 67
352 350 349 347 347 345 343 340 334 355 4 8 41 81 123 130 132 211 246 316 292 299 329 293 298 286 274 265 315 3 39 350 326 298 346 356 16 87 309 49 88 250 300 97 38 0 30 245 249 233 209 196 217 202 142 165 215 214 206 243 279 260 273 292 308 328 7 97 280 23 47 17 18 30 28 35 56 49 41 64 68 73 77 72 75 77 75 71
349 347 347 345 345 344 342 337 319 352 17 40 73 92 111 127 142 177 132 61 292 308 350 325 10 298 300 298 328 14 38 8 315 299 348 1 3 43 124 93 138 240 338 123 159 140 245 253 255 212 147 159 250 22 92 40 348 208 185 186 263 283 309 286 315 328 340 85 257 28 52 37 19 42 45 28 47 63 53 63 63 65 76 76 77 78 77 78
346 346 345 343 344 344 341 331 329 4 24 56 76 92 120 141 147 162 140 49 307 300 259 229 209 220 259 298 330 22 56 216 223 286 351 12 343 0 167 186 151 230 268 191 161 188 234 253 273 94 89 138 230 346 74 114 320 273 211 193 235 266 224 220 284 325 336 353 5 66 54 32 19 51 53 16 35 56 50 62 61 52 64 73 72 67 69 79
344 344 343 342 343 346 342 320 10 12 18 59 72 91 114 139 173 168 116 45 338 300 291 278 302 226 264 301 308 309 201 284 233 264 348 24 34 327 287 195 116 251 258 205 147 226 260 286 42 90 64 75 133 303 230 181 267 306 240 201 198 200 204 280 343 2 19 357 318 66 53 334 5 55 53 15 44 50 37 57 62 53 57 65 68 64 63 65
343 343 344 342 343 349 350 305 1 1 356 51 56 87 110 134 185 172 98 56 349 293 325 319 287 332 318 330 305 197 63 318 259 282 4 24 28 142 267 301 11 250 247 228 190 253 279 353 48 103 94 70 74 279 246 165 125 312 254 179 149 129 44 356 13 35 52 246 267 70 113 227 342 56 49 40 68 59 42 55 59 59 62 67 73 70 67 61
342 343 346 344 346 356 2 316 341 353 42 349 340 300 247 150 124 186 67 39 351 281 343 289 290 22 318 319 0 78 336 305 314 8 18 22 342 59 233 294 327 293 264 64 355 280 240 23 33 68 82 70 54 284 231 138 117 250 243 117 107 76 324 298 99 119 228 242 316 5 132 165 112 118 146 69 78 64 53 60 57 62 70 70 71 69 69 63
344 343 347 347 350 0 7 352 348 26 31 324 323 312 250 146 221 127 85 51 317 303 57 284 297 16 310 344 38 69 276 314 43 297 335 41 350 30 33 257 191 249 291 102 253 268 303 32 31 92 66 27 258 235 197 133 109 251 217 129 124 241 217 175 135 176 249 40 327 318 106 127 207 170 199 48 77 73 70 80 80 78 74 71 66 56 57 49
346 344 346 350 353 359 7 24 25 19 349 346 16 324 309 159 41 65 75 106 287 13 202 292 341 302 337 8 21 11 326 354 56 275 332 51 19 47 69 223 158 212 295 124 209 257 0 239 194 134 99 267 243 240 195 151 265 261 170 130 42 51 97 113 120 142 41 47 260 281 43 126 193 174 248 35 82 105 116 103 95 81 68 63 49 36 42 42
347 344 344 351 358 360 7 41 18 4 340 349 342 288 280 84 68 61 43 242 313 330 246 354 345 326 12 18 342 341 10 340 322 323 354 33 2 25 84 176 99 113 329 18 226 256 318 290 193 111 172 213 225 258 195 173 256 343 84 44 25 36 45 49 72 100 60 350 252 254 230 143 109 55 283 302 151 162 152 115 77 64 64 58 42 32 40 43
343 342 342 351 3 6 10 4 358 358 343 339 326 290 92 41 63 85 121 261 280 328 2 9 329 7 30 31 317 331 2 328 330 5 5 4 2 6 27 32 42 53 12 2 329 304 352 5 324 302 279 165 82 319 346 2 2 63 66 38 21 356 16 26 357 43 80 267 265 254 206 132 107 25 307 303 273 190 164 135 114 92 74 59 42 36 42 45
339 340 340 349 4 11 13 351 349 356 345 339 345 75 86 35 24 99 277 319 338 320 355 319 316 2 4 8 324 315 334 329 351 46 32 23 39 22 31 48 12 15 0 332 328 338 1 318 291 309 310 84 80 354 341 2 28 52 56 58 44 343 5 7 317 353 190 238 259 291 63 91 85 252 256 308 20 10 37 104 110 93 71 53 38 34 41 43
335 336 339 350 4 10 8 353 351 356 342 341 38 59 74 74 338 242 288 328 355 319 337 297 324 342 341 5 351 316 319 316 351 33 31 62 71 52 15 30 80 28 325 271 339 354 339 304 313 355 324 28 88 68 338 331 359 13 57 97 84 58 41 312 280 310 291 260 260 322 35 81 88 230 217 44 36 31 42 60 78 77 68 52 36 35 40 35
337 338 339 349 3 2 0 353 352 353 342 1 63 53 60 65 252 281 317 277 283 333 0 25 328 341 21 32 325 333 2 318 344 15 0 29 51 17 339 348 10 50 55 356 354 41 10 298 304 65 300 13 61 131 165 175 326 304 194 134 123 146 145 238 241 207 257 279 291 324 40 135 160 106 87 59 45 49 58 61 64 63 59 44 30 33 37 25
342 340 344 358 3 357 354 351 350 350 345 36 64 62 87 240 264 245 288 267 297 332 315 323 17 23 8 331 314 4 31 297 339 18 22 38 63 12 344 327 337 33 73 31 314 140 122 255 265 305 305 73 62 232 138 94 18 263 170 90 106 183 150 174 202 181 189 300 317 339 58 145 133 90 62 49 47 40 39 38 40 42 38 33 25 25 29 12
342 344 11 16 3 355 352 350 349 347 353 75 64 57 155 214 249 169 224 287 349 324 320 345 40 48 344 318 331 1 21 291 331 13 23 43 120 325 336 272 303 17 73 107 275 337 42 276 285 344 358 77 144 233 36 70 240 245 77 86 226 177 125 116 286 0 77 72 288 126 113 122 112 102 63 47 47 35 31 30 30 34 32 29 24 21 16 357
348 8 40 18 2 353 349 349 347 348 30 82 82 102 210 218 176 171 226 330 317 63 37 9 357 26 335 313 313 327 347 323 325 14 8 334 20 4 338 290 278 29 33 93 259 265 134 275 295 16 63 297 185 151 6 346 154 89 141 224 226 84 93 100 25 357 36 71 266 91 131 172 163 132 59 40 41 30 28 26 20 26 29 23 22 18 2 350
353 39 47 13 358 351 348 347 342 0 68 70 79 151 203 204 120 174 204 35 322 55 73 76 277 26 86 268 287 301 333 343 335 8 15 312 353 80 46 312 288 43 9 357 298 278 113 288 299 299 165 305 346 67 353 326 352 113 194 220 91 81 337 20 73 1 0 264 278 340 95 156 167 162 61 43 37 25 19 15 12 15 17 13 14 8 353 352
6 49 25 357 353 349 347 340 340 45 69 64 82 183 144 300 268 264 180 118 96 84 85 211 267 7 42 177 256 293 331 344 321 359 62 8 349 73 82 346 293 2 357 3 184 269 56 99 286 281 229 316 0 45 0 319 335 21 21 342 24 138 170 196 137 163 173 204 231 315 349 105 61 13 92 69 46 30 18 10 8 7 7 8 9 359 349 358
43 58 312 344 352 347 345 356 28 55 66 87 155 188 14 332 274 286 241 190 139 128 116 204 210 332 313 295 281 288 335 313 280 344 7 350 0 52 64 36 308 318 327 358 104 318 4 110 255 289 331 358 356 347 195 199 321 4 28 359 339 332 286 219 339 116 129 158 180 224 280 149 66 37 88 80 52 38 23 9 1 355 360 9 5 351 344 5
64 50 289 342 351 341 351 38 43 60 88 94 95 245 7 74 285 316 308 264 174 192 184 161 171 210 254 326 305 267 322 330 302 327 295 0 39 17 24 82 228 311 334 16 50 6 358 127 231 292 332 337 263 256 195 172 190 162 123 72 164 268 337 55 304 323 78 146 172 168 224 184 80 43 67 67 53 41 22 4 352 348 357 8 357 342 342 16
67 61 282 343 347 337 33 55 5 60 97 81 41 63 18 67 87 326 330 354 58 39 46 109 166 192 182 224 271 250 300 313 298 6 320 327 50 0 297 112 230 271 338 0 351 321 73 98 85 278 273 267 269 270 121 136 180 130 96 58 110 101 82 121 210 278 334 328 180 144 200 182 96 58 58 51 49 48 20 357 350 350 360 1 346 338 356 19
80 162 281 349 346 340 84 48 332 18 51 264 306 163 5 71 99 311 349 8 15 11 15 19 185 179 210 214 247 256 233 239 242 291 290 255 267 292 283 324 321 241 143 330 322 327 0 76 33 295 293 311 312 337 51 55 57 68 27 25 72 52 81 139 171 200 221 313 0 113 271 209 144 82 66 43 19 25 11 355 351 349 353 351 341 348 12 9
134 220 271 359 2 45 111 66 346 14 332 293 32 13 330 87 120 42 353 337 346 83 52 338 219 1 300 180 140 233 242 257 303 347 82 201 208 333 320 339 335 291 112 331 314 343 320 116 70 352 343 348 348 355 355 350 24 63 13 2 27 42 43 75 99 75 100 300 78 129 252 227 145 90 64 38 357 348 357 352 347 349 351 348 352 9 7 0
60 297 266 360 23 56 113 155 144 133 291 37 42 3 353 8 63 113 166 265 267 151 147 308 260 116 306 300 354 297 276 214 272 337 32 285 299 335 329 332 328 244 245 278 273 314 265 192 109 99 120 300 299 298 287 294 340 37 33 5 7 29 25 353 54 66 96 307 31 127 230 236 130 53 3 2 353 344 350 354 353 1 356 347 357 9 357 355
71 50 310 337 18 48 74 133 103 110 133 104 58 4 29 7 307 261 157 223 331 139 159 313 314 47 9 17 8 320 308 307 277 23 35 313 289 303 308 323 320 246 271 291 298 89 96 102 110 145 170 198 221 247 261 261 7 37 32 13 9 8 15 63 86 63 168 343 340 221 221 296 320 358 352 354 357 352 349 350 351 353 349 343 355 359 347 349
76 86 16 332 346 24 26 8 42 70 111 118 101 0 9 342 320 347 148 210 36 54 34 11 38 46 16 20 19 299 292 332 358 35 44 284 279 296 301 311 325 304 303 303 143 95 72 346 329 146 197 233 241 265 9 58 63 70 60 32 24 19 32 68 86 288 110 77 301 276 348 345 329 10 4 351 350 349 342 343 343 339 338 342 351 346 344 347
62 143 163 94 329 25 23 359 44 68 47 76 113 5 9 4 349 354 264 303 23 35 25 16 13 15 268 288 33 306 309 346 356 330 341 307 306 336 344 322 325 335 350 350 351 97 99 292 296 113 275 298 313 71 91 87 79 73 72 56 41 39 48 72 103 192 94 127 245 307 351 338 324 11 1 348 343 339 335 336 334 330 333 346 350 345 347 347
65 103 311 9 65 163 116 352 75 78 45 44 72 29 49 40 334 291 282 4 4 351 44 343 303 308 302 276 149 151 309 345 333 293 274 330 311 354 6 327 318 349 24 15 343 100 116 288 300 82 332 348 18 75 100 99 94 71 61 57 51 56 67 79 94 318 40 177 230 5 344 297 78 16 350 342 336 329 329 331 329 331 341 355 352 349 349 347
79 145 268 37 53 65 33 16 73 82 37 28 55 25 106 138 302 301 344 62 358 327 20 336 291 298 308 283 128 138 252 180 232 260 199 54 324 345 28 259 289 340 11 29 330 343 49 328 322 74 32 357 29 67 80 95 102 83 56 39 41 46 47 46 22 354 14 345 345 5 330 279 46 10 339 327 331 333 337 334 329 337 357 358 351 351 349 345
88 141 143 103 62 356 13 19 69 91 37 6 41 348 348 1 285 292 293 171 189 246 292 291 295 310 344 60 96 257 247 176 204 236 190 171 274 236 16 216 217 332 351 16 338 352 33 357 350 57 50 318 15 93 101 104 95 76 42 16 26 40 24 357 12 29 20 316 329 349 334 310 335 342 327 323 337 342 342 334 330 347 9 357 352 352 346 343
79 53 69 101 85 352 15 13 33 79 67 327 341 310 314 320 326 9 80 272 221 219 231 229 248 308 357 27 65 241 222 188 205 221 185 176 246 129 51 18 94 42 352 23 14 4 63 55 2 48 67 283 287 150 159 112 48 13 1 350 351 66 31 351 23 58 31 44 13 342 316 316 330 335 331 333 342 349 343 331 331 354 1 354 357 353 343 342
Height
828 827 827 826 826 825 825 824 824 824 824 823 823 822 821 821 820 820 819 819 819 818 818 818 817 817 815 815 814 813 812 811 810 810 810 810 810 809 808 807 807 806 805 805 805 805 804 803 802 801 800 800 802 802 801 801 802 805 814 822 824 825 821 813 812 814 812 811 812 811 811 812 812 812 812 812 812 811 813 813 811 811 812 812 811 810 811 814
828 828 827 827 826 826 825 825 824 824 824 823 823 822 821 821 820 819 819 819 819 818 818 818 817 816 815 814 813 812 811 810 810 810 810 810 810 809 808 807 806 806 805 805 805 805 805 804 803 803 803 803 803 803 802 802 802 807 817 823 821 819 814 808 807 809 810 807 807 809 810 811 809 809 811 811 812 812 813 812 812 812 811 813 812 812 813 814
828 828 827 827 826 826 825 825 825 824 824 823 823 822 821 820 819 819 818 818 818 818 818 817 816 815 814 813 812 812 811 810 810 810 810 809 809 808 807 807 806 805 805 805 805 805 805 805 805 805 806 806 805 804 804 804 804 808 815 820 816 811 809 807 807 806 806 804 805 808 809 810 808 807 810 810 810 812 811 809 810 811 808 811 814 814 814 815
828 827 827 826 826 826 825 825 824 824 823 823 822 822 821 820 819 818 818 818 817 818 817 817 816 814 814 812 812 811 810 811 811 810 809 809 808 808 807 806 805 805 805 805 805 805 805 805 806 806 807 807 806 805 806 804 805 808 811 813 809 808 809 806 806 805 804 805 804 806 809 809 807 808 808 808 811 810 806 804 804 805 803 809 815 814 814 815
828 827 827 826 826 826 825 825 824 824 823 823 822 821 821 820 819 819 818 817 817 817 816 816 815 814 813 812 812 811 811 814 812 809 809 809 808 808 807 806 806 805 805 805 804 805 805 805 805 806 808 807 806 806 806 804 804 807 808 807 804 807 807 803 805 805 804 806 805 806 807 806 806 808 806 807 808 802 798 798 799 799 800 805 810 812 814 815
828 827 827 826 826 825 825 824 824 823 823 822 822 821 821 820 819 819 818 817 817 817 816 816 815 814 813 812 812 811 813 816 811 808 809 808 808 807 807 806 806 805 805 804 804 804 805 805 806 807 808 808 807 807 805 804 804 807 807 805 803 805 804 802 805 805 804 805 804 805 804 804 806 806 806 806 801 794 793 795 796 797 799 802 806 810 812 813
827 827 826 826 825 825 824 824 824 823 822 822 821 821 821 820 819 819 818 818 817 817 816 815 814 814 813 812 811 811 814 813 808 808 808 807 808 807 806 806 805 804 804 804 804 804 805 806 807 807 809 808 808 806 805 804 804 807 806 803 803 804 802 802 803 804 805 804 803 805 804 805 805 804 806 803 794 791 793 795 796 796 798 801 805 808 809 810
827 827 826 826 825 825 824 824 823 823 822 821 821 821 820 820 819 819 818 817 817 817 816 815 814 813 813 812 811 813 813 810 808 808 807 807 807 806 806 805 804 804 803 804 803 804 805 806 807 807 810 810 807 806 805 806 806 806 805 803 803 803 802 802 803 803 804 803 804 806 805 804 804 805 805 797 790 790 794 795 797 798 799 801 803 805 807 809
828 827 826 826 825 825 824 823 823 822 822 821 821 820 820 819 819 818 818 817 816 816 815 815 814 813 813 812 812 814 811 808 808 807 807 807 806 806 806 804 804 803 803 803 803 803 805 806 806 807 809 809 807 807 806 807 808 805 804 804 804 803 802 803 804 803 803 803 805 805 804 805 805 806 800 790 788 790 792 794 796 798 799 800 802 803 805 807
828 827 827 826 825 825 824 823 823 822 821 821 820 820 819 819 818 818 817 817 816 816 815 814 814 813 813 812 814 815 810 807 808 807 807 806 806 806 805 804 803 803 802 803 803 803 804 805 805 805 806 807 807 809 808 808 808 806 806 805 804 803 803 804 802 802 804 804 804 804 804 804 805 807 797 786 788 791 791 793 796 797 797 799 801 802 804 806
829 828 827 826 826 825 824 823 823 822 821 820 820 819 819 818 818 817 817 816 816 815 814 814 813 813 812 812 815 814 808 807 808 806 806 806 805 805 804 804 803 802 802 802 802 803 803 803 803 804 806 806 806 809 809 808 808 807 806 804 803 804 803 803 803 803 805 804 803 804 805 805 807 806 794 786 790 793 791 792 795 797 796 798 800 802 804 805
829 828 827 827 826 825 824 823 822 822 821 820 819 819 818 818 817 816 816 816 815 815 814 813 813 813 812 813 813 811 807 807 807 806 806 805 805 804 803 803 802 802 802 802 802 802 802 802 802 804 805 806 808 810 809 808 809 807 808 807 804 804 802 800 802 803 804 803 803 804 804 803 805 800 787 788 794 793 793 792 794 795 795 798 801 803 804 805
829 828 827 827 826 825 824 823 822 821 820 819 818 818 817 816 816 815 815 814 814 814 813 813 813 812 813 812 810 808 807 807 806 806 806 804 804 804 803 803 802 802 801 802 802 801 802 801 801 803 804 805 808 809 808 808 809 808 810 811 809 808 803 801 803 803 803 804 802 804 804 796 795 794 788 793 796 794 793 792 793 794 795 799 801 802 804 806
829 828 827 827 826 825 824 822 821 820 819 818 817 816 815 814 814 813 813 813 813 813 813 812 812 812 813 811 808 807 807 807 806 806 805 804 803 803 803 802 802 802 801 801 801 801 801 801 801 802 804 807 807 808 809 811 811 811 813 814 817 815 804 800 805 803 803 806 803 804 808 798 790 791 791 795 796 795 793 790 793 796 798 801 802 803 805 808
829 828 827 826 825 824 823 822 820 819 818 817 816 815 814 813 812 811 811 811 812 812 811 812 811 812 814 811 807 807 807 806 806 805 805 804 803 803 802 802 801 801 801 800 800 801 801 800 801 803 806 808 807 809 812 814 814 816 815 814 820 820 807 800 804 803 801 805 805 804 808 805 795 791 794 797 797 797 795 793 797 800 800 800 801 805 807 810
829 828 827 826 825 824 822 821 819 818 817 816 814 814 812 811 810 810 810 810 811 811 811 811 811 812 814 811 807 807 807 806 806 805 805 804 803 803 802 801 801 800 800 800 800 800 800 801 804 807 808 808 810 813 816 819 817 819 819 815 816 818 812 804 802 804 803 804 806 806 806 804 796 791 795 800 799 799 798 798 801 803 803 803 804 808 810 813
829 828 827 826 824 823 822 820 819 817 816 815 813 812 811 810 810 809 809 810 810 810 810 811 810 811 812 809 807 808 807 806 806 805 804 804 803 803 802 801 800 800 799 798 799 800 800 802 807 809 809 813 815 815 820 822 817 817 821 819 816 816 814 808 801 803 805 804 806 809 810 806 797 793 796 801 802 800 800 802 806 808 808 809 810 812 814 817
829 828 827 825 824 823 821 819 818 816 815 814 812 811 810 809 809 809 810 810 809 810 810 810 810 813 813 809 808 808 807 806 805 805 804 803 803 803 802 802 801 800 800 800 801 801 802 805 809 810 812 816 816 817 822 820 815 815 818 817 815 814 815 810 804 804 806 806 808 810 812 809 803 801 801 805 807 804 805 810 812 813 813 813 814 816 819 821
829 828 826 825 824 822 820 819 817 816 815 813 812 810 809 809 809 809 809 809 810 811 813 812 812 815 814 810 809 808 806 806 805 804 804 803 803 802 802 802 802 801 803 804 803 803 804 807 811 812 812 812 813 816 817 814 815 816 816 816 813 811 811 809 807 809 810 809 809 811 812 810 808 809 811 813 813 812 814 817 817 818 818 818 819 821 824 826
828 827 826 824 823 821 820 818 817 816 814 813 811 809 810 812 812 811 810 810 812 813 814 813 813 813 812 810 809 807 805 805 804 804 804 803 802 802 802 802 803 803 805 806 806 806 807 810 813 812 809 808 810 814 813 814 818 818 816 814 814 814 811 808 807 812 814 810 810 815 814 814 816 819 822 820 817 820 821 821 823 823 823 824 825 826 828 831
828 827 826 824 822 821 819 818 817 815 814 813 811 810 813 816 816 816 815 813 813 814 813 813 813 812 810 810 809 808 807 805 804 804 803 803 802 802 803 804 805 805 807 809 809 808 809 812 811 807 807 809 811 814 814 816 818 816 815 814 815 817 812 809 812 815 815 810 812 818 816 819 827 828 828 825 822 827 827 826 828 828 828 829 830 831 833 834
828 826 825 824 822 821 819 818 816 815 814 813 811 813 816 817 817 818 818 816 814 814 813 812 812 812 810 809 809 809 809 807 805 804 804 803 801 803 804 805 807 807 809 811 810 811 814 811 805 806 813 814 814 816 815 815 816 815 817 816 814 816 813 811 815 816 814 811 812 817 819 827 835 833 832 831 830 834 833 831 832 832 832 834 834 835 836 837
828 826 825 823 822 820 818 817 816 815 814 813 813 815 816 817 817 818 818 819 816 813 813 812 812 812 810 809 809 809 809 809 808 805 804 803 803 805 805 805 808 809 809 808 809 813 812 807 807 812 815 813 813 816 816 816 816 815 817 816 811 815 814 809 812 815 815 816 814 815 823 832 835 835 836 836 836 838 837 836 836 836 836 837 839 839 839 840
827 826 824 823 821 820 818 817 816 815 814 814 815 815 817 817 817 818 818 820 819 813 812 812 812 812 811 810 809 810 810 811 810 807 806 805 806 807 806 806 809 809 809 809 810 811 808 809 815 815 813 813 812 814 816 814 814 814 815 813 810 812 814 812 815 816 814 817 818 816 820 830 836 839 841 841 840 840 840 839 839 840 841 840 841 841 842 842
827 825 824 822 821 819 817 816 815 815 815 815 815 816 817 816 817 818 817 820 819 814 812 812 812 812 810 810 809 810 811 810 809 808 807 807 807 808 807 807 809 809 810 811 812 810 809 815 818 813 812 815 813 813 814 814 814 813 811 812 812 812 814 816 818 817 813 814 817 815 814 827 840 844 845 846 844 844 844 843 844 845 844 843 843 844 844 844
826 825 824 821 820 818 816 816 816 816 815 816 816 816 816 816 817 817 818 822 820 815 813 812 812 812 810 810 810 810 811 810 809 808 808 808 808 808 807 809 810 809 810 811 811 811 813 819 818 813 814 816 815 814 816 819 816 812 812 816 817 815 816 817 818 817 814 814 819 820 814 823 841 847 849 850 848 849 849 847 848 848 847 846 846 846 845 845
826 825 823 821 819 817 816 816 816 816 816 816 816 816 816 817 817 817 819 824 822 817 815 813 812 812 811 811 810 811 812 810 808 809 809 808 808 808 808 810 810 809 811 811 809 812 815 816 816 816 815 814 813 812 817 821 814 811 818 820 818 817 818 819 820 818 819 819 819 823 818 817 835 847 850 851 850 852 853 851 852 850 849 849 848 848 848 847
825 824 822 821 819 817 817 817 816 816 816 816 816 816 816 816 817 817 820 827 825 817 815 813 811 811 811 811 811 812 812 811 810 810 809 809 808 809 809 810 811 810 813 813 811 815 818 814 813 815 814 813 812 814 820 820 813 813 821 823 821 821 822 823 823 821 827 823 813 819 821 814 831 850 850 850 852 853 855 854 853 853 851 851 850 850 850 850
825 823 822 820 818 817 817 816 816 817 816 816 816 816 816 816 817 817 822 828 823 816 816 814 810 813 814 812 813 815 813 811 813 811 809 810 809 809 810 812 814 812 814 816 812 813 819 818 816 815 813 814 814 817 821 817 814 818 824 825 825 827 827 826 825 823 826 822 809 816 821 814 831 853 849 848 852 854 856 855 854 855 854 854 853 853 854 855
824 822 821 820 818 818 817 816 817 816 816 816 816 815 816 816 817 822 828 828 821 818 817 813 813 818 818 815 814 817 816 814 815 812 810 811 810 810 813 814 814 814 816 817 814 816 821 821 821 819 817 819 819 819 823 820 818 821 821 819 819 825 828 826 830 827 820 816 811 818 825 815 827 852 855 851 852 853 854 855 856 857 857 858 857 857 858 858
824 822 821 819 818 817 816 817 816 816 816 815 815 815 815 818 821 827 831 826 821 820 817 816 820 821 823 824 820 818 818 816 817 814 812 814 814 813 814 814 814 813 812 813 812 818 822 818 820 823 823 824 821 819 824 827 824 821 819 816 813 817 821 821 827 825 814 812 813 821 825 818 828 853 860 855 853 853 852 853 856 857 859 862 861 860 861 860
823 821 820 819 818 817 817 817 816 816 815 814 815 814 816 821 824 827 828 823 822 824 822 824 826 824 827 830 825 824 823 819 818 819 819 821 822 825 824 824 823 815 812 816 814 813 816 819 823 824 824 825 820 814 818 822 821 818 817 817 812 815 818 814 816 821 815 811 817 822 818 825 847 859 857 854 854 856 857 856 857 859 862 864 864 863 863 862
822 821 820 819 818 818 817 817 815 815 814 814 815 814 818 824 827 831 831 825 826 828 828 830 830 830 831 826 825 830 828 822 820 821 824 825 825 830 832 834 834 822 817 824 822 814 813 819 823 819 819 825 821 813 812 814 815 815 816 816 814 819 825 820 820 826 819 811 821 826 820 837 861 858 853 859 860 862 864 863 863 864 866 866 866 865 864 863
821 820 819 818 818 818 817 816 815 815 814 814 814 816 821 826 831 835 833 830 832 832 831 835 833 830 830 827 829 832 826 822 824 823 822 823 823 827 829 831 834 828 823 824 824 822 817 814 816 816 817 822 822 819 819 818 817 819 822 821 815 817 822 821 819 820 820 819 823 825 829 847 861 857 858 865 864 865 866 865 866 867 867 867 866 865 866 866
820 819 819 818 818 818 817 816 815 814 813 814 816 819 825 829 833 836 835 836 838 835 834 838 835 827 826 830 833 834 828 824 826 825 822 825 828 830 831 832 835 834 827 823 824 828 823 814 817 824 825 824 822 825 829 823 818 823 828 821 816 818 819 821 826 828 830 829 826 832 844 854 857 859 865 867 865 867 866 865 867 867 867 868 867 868 870 870
819 819 818 818 818 817 816 815 815 814 813 814 818 824 831 835 836 837 840 841 842 842 837 833 831 827 826 829 830 832 833 829 828 826 825 831 834 834 836 836 839 838 831 827 827 829 824 815 819 827 826 826 827 828 830 825 818 822 824 819 822 828 823 821 829 837 840 832 828 843 858 859 858 861 866 869 869 870 871 870 870 870 871 872 872 873 873 872
819 818 818 818 818 817 816 816 814 813 814 815 820 830 838 841 842 844 846 846 845 847 841 832 830 831 832 831 828 830 832 830 831 828 827 833 834 835 838 838 840 841 839 836 831 831 830 820 819 824 821 825 834 831 828 830 825 820 818 820 827 831 828 826 826 829 838 834 827 841 858 858 858 862 866 873 875 875 876 876 874 874 874 874 875 875 875 873
819 819 819 819 818 817 816 815 814 814 814 818 827 837 842 843 847 850 851 850 848 846 842 835 833 834 836 835 832 833 833 828 829 831 830 831 833 837 841 840 840 843 845 842 833 834 836 824 818 825 823 825 834 830 822 827 830 825 822 825 827 822 821 827 827 824 832 837 833 842 859 861 859 865 872 878 881 880 880 879 877 876 875 875 876 875 874 873
818 819 820 819 818 817 815 814 815 814 815 823 832 838 843 845 849 853 853 852 851 845 841 841 841 838 838 839 836 837 838 834 832 834 832 831 834 839 846 846 842 842 848 846 837 835 838 829 820 824 828 828 826 823 819 820 826 827 826 826 827 824 822 825 829 829 831 838 842 842 853 866 869 871 878 882 883 884 882 881 879 877 877 876 876 876 873 872
819 820 821 820 817 817 816 814 815 816 821 832 838 840 845 847 848 853 854 852 850 846 843 845 845 841 839 842 842 841 841 839 837 836 833 834 835 839 851 856 847 845 849 846 841 838 837 833 824 821 826 826 821 823 824 822 823 824 822 822 823 826 830 830 833 838 833 835 843 840 846 870 878 873 878 883 883 884 883 883 882 879 879 878 878 878 875 875
820 822 822 820 817 817 815 815 822 828 831 838 842 843 846 848 848 851 854 853 851 849 848 847 845 844 842 843 843 843 842 839 838 837 834 837 837 837 852 863 858 854 849 839 840 842 837 837 834 826 823 820 822 830 833 831 830 828 824 826 829 829 831 830 833 844 842 837 844 844 846 872 883 875 878 883 882 884 885 884 884 882 881 881 881 879 877 877
821 824 823 819 817 816 815 821 834 839 836 839 845 847 848 850 849 849 851 853 851 850 850 848 847 848 846 843 844 845 843 839 838 837 836 839 841 842 854 865 863 862 853 840 842 848 844 843 841 832 827 826 829 836 840 840 838 835 833 836 839 835 834 833 832 841 844 841 847 847 848 872 886 880 881 884 883 886 887 886 886 883 882 883 882 880 879 879
824 825 821 819 818 816 816 825 835 839 841 847 851 851 852 852 849 849 850 850 849 849 848 847 848 847 845 846 846 844 842 840 837 838 839 840 845 852 860 863 861 861 856 845 845 849 847 844 840 832 828 831 832 834 839 842 838 835 838 844 844 840 841 841 841 844 843 844 850 848 851 874 887 883 884 886 885 887 887 887 887 885 885 885 883 881 880 879
828 827 823 821 816 814 820 828 833 836 844 849 848 848 851 853 850 849 849 849 850 850 848 847 848 848 847 849 848 844 843 841 837 840 843 841 848 859 863 863 861 858 854 850 849 850 844 840 841 836 829 828 829 830 832 835 837 839 844 850 851 849 849 849 851 852 848 853 861 854 854 873 885 884 887 889 889 889 889 888 887 886 885 883 881 881 880 879
828 827 826 824 819 818 827 836 836 836 842 844 843 845 848 849 852 853 851 851 854 853 850 849 850 851 850 850 848 846 845 842 839 842 846 844 850 860 862 862 862 859 857 857 858 855 846 842 843 838 834 833 832 833 834 836 841 845 852 857 855 854 854 849 849 851 851 863 870 863 862 872 881 887 889 890 890 888 886 885 883 884 883 881 881 881 881 880
828 827 828 827 825 827 836 843 841 837 841 841 840 846 847 844 850 856 854 851 853 855 852 851 852 851 849 849 846 844 844 845 843 843 845 844 848 857 861 861 861 860 859 859 859 856 849 847 847 841 839 838 834 838 844 844 846 852 860 866 864 863 861 853 854 862 867 873 870 867 873 876 881 892 892 888 888 886 884 884 882 883 883 882 883 882 881 881
830 833 836 833 831 833 838 843 843 840 843 843 841 846 847 844 847 852 852 851 853 855 853 852 853 849 847 849 848 844 844 847 847 846 849 851 851 856 861 861 860 859 859 858 858 857 847 844 851 850 844 842 843 848 851 851 857 865 869 873 872 871 866 862 867 874 877 876 868 868 877 878 884 897 896 891 892 889 887 886 884 884 884 882 883 882 881 880
832 837 842 839 836 837 838 841 845 844 845 846 846 848 847 846 846 847 849 852 854 854 851 848 851 851 850 852 850 846 844 844 846 849 853 856 855 854 855 857 858 858 858 856 856 857 849 844 854 856 847 847 853 856 858 862 869 875 876 877 878 876 873 873 876 878 876 874 872 875 880 882 889 898 896 893 893 890 889 888 887 885 884 884 884 883 881 880
836 838 843 842 840 842 844 847 848 845 844 846 847 848 848 846 847 849 852 851 849 853 852 846 846 850 853 855 852 847 846 844 845 850 856 857 857 857 854 853 856 858 857 853 855 859 852 847 856 858 849 854 862 861 862 867 873 879 881 882 882 882 880 879 879 880 877 874 878 886 888 887 892 896 895 893 893 891 891 889 887 886 885 885 885 883 882 880
836 836 840 841 841 846 849 850 847 842 844 848 846 847 851 849 848 851 856 853 846 849 853 849 847 852 855 855 852 848 851 852 849 853 859 859 859 860 858 856 858 859 855 854 857 858 851 849 858 857 848 856 867 866 868 872 875 881 886 885 884 884 883 882 883 884 882 880 886 894 893 890 891 893 894 894 892 892 891 890 888 887 886 886 885 884 882 879
836 837 838 837 841 847 848 848 848 842 842 848 847 848 852 851 852 854 855 858 854 851 853 853 852 855 856 854 852 852 857 860 857 858 862 861 860 861 861 861 862 860 857 859 859 857 854 854 859 855 846 853 864 866 872 877 874 876 885 889 888 887 887 886 888 891 890 890 894 897 896 895 893 893 894 894 894 894 893 891 888 886 888 889 887 885 882 879
837 837 838 836 840 848 848 847 849 844 844 851 853 853 852 852 857 857 851 855 859 857 857 858 857 855 852 850 853 857 860 862 861 862 864 864 864 864 864 864 864 862 860 862 862 864 863 858 858 858 852 853 862 867 871 870 862 868 887 894 890 891 893 890 892 897 897 896 899 900 899 897 895 895 895 893 893 895 895 892 889 889 890 889 886 886 883 880